Location: Москва
(55.7504°N, 37.6175°E)
Time: 14:08:50
(UTC+03:00)

Envisat - Pass Details

Date: 18 September 2021
Orbit: 764 x 766 km, 98.2° (Epoch: 20 October)

Event Time Altitude Azimuth Distance (km) Brightness Sun altitude
Rises 04:34:36 0° 23° (NNE) 3,247 7.0 -13.4°
Reaches altitude 10° 04:37:28 10° 39° (NE) 2,315 6.5 -13.0°
Maximum altitude 04:41:19 21° 88° (E) 1,663 5.7 -12.5°
Drops below altitude 10° 04:45:09 10° 138° (SE) 2,301 5.7 -12.0°
Sets 04:47:59 0° 154° (SSE) 3,222 6.3 -11.6°
